Weather History for KPHX - January, 2013

Change the Weather History Date:

Wednesday, January 23, 2013

  Actual Average Record
Temperature  
Mean Temperature 66 °F 57 °F  
Max Temperature 81 °F 68 °F 81 °F (2013)
Min Temperature 51 °F 46 °F 24 °F (1937)
Degree Days  
Heating Degree Days 0 8  
Month to date heating degree days 293 207  
Since 1 July heating degree days 574 608  
Cooling Degree Days 1 0  
Month to date cooling degree days 3 0  
Year to date cooling degree days 3 0  
Growing Degree Days 16 (Base 50)    
Moisture  
Dew Point 24 °F    
Average Humidity 25    
Maximum Humidity 38    
Minimum Humidity 12    
Precipitation  
Precipitation 0.00 in 0.03 in 0.25 in (1967)
Month to date precipitation 0.01 0.69  
Year to date precipitation 0.01 0.69  
Snow  
Snow 0.00 in - - ()
Month to date snowfall 0.0  
Year to date snowfall 0.0  
Since 1 July snowfall 0.0  
Snow Depth 0.00 in    
Sea Level Pressure  
Sea Level Pressure 30.09 in    
Wind  
Wind Speed 4 mph (East)    
Max Wind Speed 14 mph    
Max Gust Speed 15 mph    
Visibility 10 miles    
Events      
T = Trace of Precipitation, MM = Missing Value Source: NWS Daily Summary

Daily Weather History Graph

Daily Weather History Graph

Search for Another Location

Airport or City:

Trip Planner

Search our weather history database for the weather conditions in past years. The results will help you decide how hot, cold, wet, or windy it might be!

Date:

Astronomy

Jan. 23, 2013 Rise Set
Actual Time 7:29 AM MST 5:51 PM MST
Civil Twilight 7:02 AM MST 6:17 PM MST
Nautical Twilight 6:32 AM MST 6:47 PM MST
Astronomical Twilight 6:02 AM MST 7:17 PM MST
Moon 3:06 PM MST (1/23) 4:41 AM MST (1/23)
Length of Visible Light 11h 15m
Length of Day
10h 22m
Waxing Gibbous, 89% of the Moon is Illuminated
Jan 23
Waxing Gibbous
Jan 26
Full
Feb 3
Last Quarter
Feb 10
New
Feb 17
First Quarter

Hourly Weather History & Observations

Time (MST) Temp. Dew Point Humidity Pressure Visibility Wind Dir Wind Speed Gust Speed Precip Events Conditions
12:51 AM 59.0 °F 26.1 °F 28% 30.08 in 10.0 mi Calm Calm - N/A   Partly Cloudy
1:51 AM 54.0 °F 28.0 °F 37% 30.10 in 10.0 mi South 3.5 mph - N/A   Partly Cloudy
2:51 AM 55.9 °F 25.0 °F 30% 30.10 in 10.0 mi ESE 4.6 mph - N/A   Partly Cloudy
3:51 AM 60.1 °F 21.9 °F 23% 30.09 in 10.0 mi East 4.6 mph - N/A   Partly Cloudy
4:51 AM 55.9 °F 21.9 °F 27% 30.10 in 10.0 mi East 8.1 mph - N/A   Clear
5:51 AM 55.9 °F 21.0 °F 26% 30.10 in 10.0 mi Calm Calm - N/A   Clear
6:51 AM 55.9 °F 21.9 °F 27% 30.12 in 10.0 mi East 4.6 mph - N/A   Mostly Cloudy
7:51 AM 55.0 °F 21.9 °F 28% 30.13 in 10.0 mi ESE 6.9 mph - N/A   Mostly Cloudy
8:51 AM 57.9 °F 23.0 °F 26% 30.14 in 10.0 mi Calm Calm - N/A   Mostly Cloudy
9:51 AM 64.9 °F 19.9 °F 18% 30.16 in 10.0 mi East 6.9 mph - N/A   Mostly Cloudy
10:51 AM 68.0 °F 19.9 °F 16% 30.16 in 10.0 mi East 9.2 mph - N/A   Mostly Cloudy
11:51 AM 72.0 °F 21.0 °F 15% 30.14 in 10.0 mi East 9.2 mph - N/A   Mostly Cloudy
12:51 PM 73.0 °F 21.9 °F 15% 30.11 in 10.0 mi East 3.5 mph - N/A   Mostly Cloudy
1:51 PM 75.0 °F 21.9 °F 14% 30.08 in 10.0 mi ENE 4.6 mph - N/A   Mostly Cloudy
2:51 PM 79.0 °F 23.0 °F 13% 30.05 in 10.0 mi East 5.8 mph - N/A   Mostly Cloudy
3:51 PM 80.1 °F 23.0 °F 12% 30.03 in 10.0 mi ENE 9.2 mph - N/A   Mostly Cloudy
4:51 PM 80.1 °F 24.1 °F 13% 30.03 in 10.0 mi East 6.9 mph - N/A   Mostly Cloudy
5:51 PM 75.9 °F 25.0 °F 15% 30.03 in 10.0 mi East 4.6 mph - N/A   Scattered Clouds
6:51 PM 72.0 °F 26.1 °F 18% 30.04 in 10.0 mi East 3.5 mph - N/A   Scattered Clouds
7:51 PM 70.0 °F 27.0 °F 20% 30.05 in 10.0 mi Calm Calm - N/A   Mostly Cloudy
8:51 PM 71.1 °F 26.1 °F 19% 30.06 in 10.0 mi Calm Calm - N/A   Mostly Cloudy
9:51 PM 66.9 °F 27.0 °F 22% 30.06 in 10.0 mi ESE 4.6 mph - N/A   Mostly Cloudy
10:51 PM 66.9 °F 27.0 °F 22% 30.08 in 10.0 mi East 4.6 mph - N/A   Scattered Clouds
11:51 PM 64.0 °F 28.0 °F 26% 30.09 in 10.0 mi Calm Calm - N/A   Scattered Clouds